ALK143 VCBI-VABB

Flight info

Callsign ALK143
Flight time N/A
Altitude 36000
Route DEMON1D DEMON R461 GUNIM R458 BBM/N0357F200 W126 EPKOS MOLGO2A
Aircraft A320/M-SDE3FGHIRWY/LB1

Departure

Time N/A
Airport Bandaranaike International Colombo Airport (VCBI)

Arrival

Time 2026-05-06 12:07
Airport Chhatrapati Shivaji Maharaj International Airport (VABB)
Time Latitude Longitude Altitude Speed Heading
2026-05-06 11:22 17.10315 73.99538 35829 ft 441 kts 329°
2026-05-06 11:22 17.12986 73.98017 35831 ft 441 kts 329°
2026-05-06 11:23 17.18403 73.94929 35821 ft 441 kts 329°
2026-05-06 11:23 17.23791 73.91826 34993 ft 445 kts 328°
2026-05-06 11:23 17.26490 73.90269 34535 ft 442 kts 329°
2026-05-06 11:24 17.29143 73.88741 34071 ft 440 kts 329°
2026-05-06 11:24 17.31819 73.87205 33553 ft 438 kts 329°
2026-05-06 11:24 17.34484 73.85680 33065 ft 435 kts 330°
2026-05-06 11:24 17.37122 73.84168 32585 ft 431 kts 330°
2026-05-06 11:25 17.39718 73.82678 32112 ft 428 kts 330°
2026-05-06 11:25 17.42339 73.81169 31651 ft 424 kts 330°
2026-05-06 11:25 17.44899 73.79692 31184 ft 421 kts 330°
2026-05-06 11:25 17.47465 73.78213 30731 ft 418 kts 330°
2026-05-06 11:26 17.49923 73.76795 30315 ft 415 kts 330°
2026-05-06 11:26 17.52512 73.75300 29850 ft 411 kts 330°
2026-05-06 11:26 17.55005 73.73860 29388 ft 407 kts 330°
2026-05-06 11:26 17.57457 73.72444 28980 ft 403 kts 330°
2026-05-06 11:27 17.59918 73.71022 28566 ft 398 kts 330°
2026-05-06 11:27 17.62334 73.69627 28176 ft 394 kts 330°
2026-05-06 11:27 17.64705 73.68255 27783 ft 391 kts 330°
2026-05-06 11:27 17.67082 73.66878 27386 ft 388 kts 330°
2026-05-06 11:28 17.69442 73.65514 26991 ft 386 kts 330°
2026-05-06 11:28 17.71790 73.64157 26582 ft 385 kts 330°
2026-05-06 11:28 17.74129 73.62804 26185 ft 383 kts 330°
2026-05-06 11:28 17.76462 73.61456 25765 ft 382 kts 330°
2026-05-06 11:29 17.78790 73.60112 25413 ft 380 kts 330°
2026-05-06 11:29 17.81088 73.58787 25113 ft 376 kts 330°
2026-05-06 11:29 17.83374 73.57465 24697 ft 375 kts 330°
2026-05-06 11:29 17.85622 73.56165 24275 ft 374 kts 330°
2026-05-06 11:30 17.87899 73.54848 23850 ft 373 kts 330°
2026-05-06 11:30 17.90127 73.53556 23415 ft 372 kts 330°
2026-05-06 11:30 17.92398 73.52241 22932 ft 371 kts 330°
2026-05-06 11:30 17.94547 73.50996 22517 ft 368 kts 330°
2026-05-06 11:31 17.96828 73.49674 22057 ft 366 kts 330°
2026-05-06 11:31 17.99047 73.48387 21642 ft 363 kts 330°
2026-05-06 11:31 18.01244 73.47110 21219 ft 360 kts 330°
2026-05-06 11:31 18.03425 73.45841 20792 ft 357 kts 330°
2026-05-06 11:32 18.05584 73.44582 20367 ft 354 kts 330°
2026-05-06 11:32 18.07733 73.43332 19943 ft 351 kts 330°
2026-05-06 11:32 18.09866 73.42094 19527 ft 350 kts 330°
2026-05-06 11:32 18.11991 73.40860 19118 ft 348 kts 331°
2026-05-06 11:33 18.14110 73.39630 18684 ft 348 kts 331°
2026-05-06 11:33 18.16240 73.38427 18238 ft 348 kts 335°
2026-05-06 11:33 18.18445 73.37454 18055 ft 339 kts 337°
2026-05-06 11:33 18.20566 73.36515 17755 ft 333 kts 337°
2026-05-06 11:34 18.22691 73.35563 17337 ft 331 kts 337°
2026-05-06 11:34 18.24781 73.34620 16740 ft 324 kts 337°
2026-05-06 11:34 18.26848 73.33689 16088 ft 321 kts 337°
2026-05-06 11:34 18.28865 73.32783 15676 ft 310 kts 337°
2026-05-06 11:35 18.30816 73.31908 15295 ft 300 kts 337°
2026-05-06 11:35 18.32732 73.31051 14922 ft 300 kts 337°
2026-05-06 11:35 18.34631 73.30200 14544 ft 302 kts 337°
2026-05-06 11:35 18.36598 73.29318 14153 ft 303 kts 338°
2026-05-06 11:36 18.38544 73.28448 13779 ft 305 kts 339°
2026-05-06 11:36 18.40501 73.27573 13367 ft 306 kts 339°
2026-05-06 11:36 18.42465 73.26695 12958 ft 307 kts 339°
2026-05-06 11:36 18.44434 73.25816 12566 ft 307 kts 338°
2026-05-06 11:37 18.46404 73.24935 12174 ft 308 kts 338°
2026-05-06 11:37 18.48376 73.24052 11781 ft 308 kts 337°
2026-05-06 11:37 18.50346 73.23166 11388 ft 309 kts 337°
2026-05-06 11:37 18.52322 73.22279 10976 ft 309 kts 337°
2026-05-06 11:38 18.54310 73.21389 10578 ft 310 kts 337°
2026-05-06 11:38 18.56290 73.20504 10255 ft 308 kts 337°
2026-05-06 11:38 18.58264 73.19618 9894 ft 308 kts 336°
2026-05-06 11:38 18.60247 73.18724 9512 ft 308 kts 336°
2026-05-06 11:39 18.62192 73.17847 9224 ft 298 kts 336°
2026-05-06 11:39 18.64021 73.17034 8973 ft 283 kts 339°
2026-05-06 11:39 18.65920 73.16665 8614 ft 276 kts
2026-05-06 11:39 18.67759 73.17068 8651 ft 273 kts 23°
2026-05-06 11:40 18.69370 73.18114 8499 ft 274 kts 38°
2026-05-06 11:40 18.70877 73.19341 8342 ft 273 kts 38°
2026-05-06 11:40 18.72380 73.20569 8154 ft 272 kts 38°
2026-05-06 11:40 18.73873 73.21789 7997 ft 272 kts 38°
2026-05-06 11:41 18.75371 73.23014 7829 ft 272 kts 38°
2026-05-06 11:41 18.76861 73.24235 7671 ft 270 kts 38°
2026-05-06 11:41 18.78345 73.25448 7501 ft 270 kts 38°
2026-05-06 11:41 18.79813 73.26645 7342 ft 269 kts 38°
2026-05-06 11:42 18.81308 73.27862 7162 ft 268 kts 37°
2026-05-06 11:42 18.82783 73.29061 7001 ft 266 kts 37°
2026-05-06 11:42 18.84250 73.30257 6838 ft 266 kts 34°
2026-05-06 11:42 18.85699 73.31438 6671 ft 261 kts 37°
2026-05-06 11:43 18.87132 73.32608 6502 ft 260 kts 36°
2026-05-06 11:43 18.88560 73.33776 6345 ft 259 kts 37°
2026-05-06 11:43 18.89984 73.34942 6180 ft 258 kts 35°
2026-05-06 11:44 18.92766 73.37221 5945 ft 244 kts 36°
2026-05-06 11:44 18.94138 73.38203 5818 ft 232 kts 18°
2026-05-06 11:44 18.95652 73.38255 5700 ft 216 kts 336°
2026-05-06 11:44 18.96760 73.37264 5579 ft 213 kts 297°
2026-05-06 11:45 18.97259 73.35784 5438 ft 215 kts 291°
2026-05-06 11:45 18.97819 73.34318 5323 ft 216 kts 295°
2026-05-06 11:45 18.98434 73.32877 5190 ft 215 kts 296°
2026-05-06 11:45 18.99057 73.31435 5084 ft 215 kts 296°
2026-05-06 11:46 18.99662 73.30019 4962 ft 215 kts 295°
2026-05-06 11:46 19.00278 73.28557 4846 ft 220 kts 293°
2026-05-06 11:46 19.00902 73.27080 4813 ft 221 kts 295°
2026-05-06 11:46 19.01553 73.25596 4773 ft 223 kts 295°
2026-05-06 11:47 19.02199 73.24148 4667 ft 213 kts 295°
2026-05-06 11:47 19.02785 73.22748 4530 ft 205 kts 293°
2026-05-06 11:47 19.03328 73.21372 4372 ft 201 kts 292°
2026-05-06 11:47 19.03851 73.20002 4213 ft 201 kts 293°
2026-05-06 11:48 19.04379 73.18632 4077 ft 202 kts 293°
2026-05-06 11:48 19.04932 73.17263 3984 ft 202 kts 294°
2026-05-06 11:48 19.05500 73.15903 3901 ft 202 kts 295°
2026-05-06 11:48 19.06051 73.14541 3822 ft 201 kts 294°
2026-05-06 11:49 19.06573 73.13167 3758 ft 201 kts 292°
2026-05-06 11:49 19.07091 73.11792 3566 ft 200 kts 294°
2026-05-06 11:49 19.07435 73.10893 3450 ft 198 kts 295°
2026-05-06 11:49 19.07953 73.09561 3284 ft 195 kts 296°
2026-05-06 11:50 19.08657 73.07794 3063 ft 196 kts 294°
2026-05-06 11:50 19.08975 73.06896 2983 ft 197 kts 287°
2026-05-06 11:50 19.09068 73.04944 2999 ft 201 kts 272°
2026-05-06 11:50 19.09059 73.03465 2979 ft 199 kts 274°
2026-05-06 11:51 19.09055 73.02528 2883 ft 187 kts 272°
2026-05-06 11:51 19.09040 73.01191 2614 ft 177 kts 274°
2026-05-06 11:51 19.09038 72.99915 2317 ft 170 kts 273°
2026-05-06 11:51 19.09044 72.98695 1976 ft 161 kts 272°
2026-05-06 11:52 19.09014 72.97579 1802 ft 144 kts 270°
2026-05-06 11:52 19.08989 72.96538 1623 ft 139 kts 273°
2026-05-06 11:52 19.08992 72.95536 1419 ft 135 kts 273°
2026-05-06 11:52 19.08979 72.94544 1280 ft 135 kts 274°
2026-05-06 11:53 19.08958 72.93557 1130 ft 134 kts 271°
2026-05-06 11:53 19.08947 72.92578 949 ft 132 kts 273°
2026-05-06 11:53 19.08947 72.91595 786 ft 135 kts 272°
2026-05-06 11:53 19.08928 72.90617 669 ft 133 kts 274°
2026-05-06 11:54 19.08927 72.89657 490 ft 132 kts 268°
2026-05-06 11:54 19.08891 72.88691 283 ft 136 kts 269°
2026-05-06 11:54 19.08862 72.87612 782 ft 151 kts 267°
2026-05-06 11:54 19.08819 72.86475 1640 ft 160 kts 270°
2026-05-06 11:55 19.08748 72.85232 2039 ft 181 kts 269°
2026-05-06 11:55 19.08633 72.83821 2264 ft 204 kts 268°
2026-05-06 11:55 19.08366 72.82302 2707 ft 218 kts 249°
2026-05-06 11:55 19.07362 72.81051 3165 ft 232 kts 214°
2026-05-06 11:56 19.05821 72.80540 3647 ft 238 kts 181°
2026-05-06 11:56 19.04192 72.80818 3780 ft 236 kts 162°
2026-05-06 11:56 19.02632 72.81340 3807 ft 235 kts 160°
2026-05-06 11:56 19.01077 72.81892 3805 ft 235 kts 159°
2026-05-06 11:57 18.99640 72.82631 3800 ft 231 kts 138°
2026-05-06 11:57 18.98736 72.84005 3808 ft 224 kts 104°
2026-05-06 11:57 18.98500 72.85611 3799 ft 221 kts 91°
2026-05-06 11:57 18.98408 72.87229 3823 ft 221 kts 89°
2026-05-06 11:58 18.98345 72.88835 3825 ft 222 kts 90°
2026-05-06 11:58 18.98278 72.90446 3590 ft 218 kts 91°
2026-05-06 11:58 18.98212 72.92045 3230 ft 217 kts 88°
2026-05-06 11:58 18.98151 72.93659 2948 ft 216 kts 90°
2026-05-06 11:59 18.98080 72.95234 2923 ft 220 kts 91°
2026-05-06 11:59 18.97991 72.96862 2929 ft 222 kts 89°
2026-05-06 11:59 18.97902 72.98496 2924 ft 223 kts 89°
2026-05-06 11:59 18.97821 73.00121 2923 ft 221 kts 90°
2026-05-06 12:00 18.97756 73.01741 2921 ft 221 kts 89°
2026-05-06 12:00 18.97810 73.03344 2927 ft 215 kts 72°
2026-05-06 12:00 18.98419 73.04704 2916 ft 200 kts 47°
2026-05-06 12:00 18.99482 73.05588 2917 ft 195 kts 22°
2026-05-06 12:01 19.00781 73.05901 2911 ft 191 kts
2026-05-06 12:01 19.02112 73.06045 2916 ft 193 kts
2026-05-06 12:01 19.03438 73.06191 2910 ft 190 kts
2026-05-06 12:01 19.04748 73.06335 2911 ft 192 kts
2026-05-06 12:02 19.06071 73.06304 2913 ft 188 kts 348°
2026-05-06 12:02 19.07202 73.05840 2903 ft 163 kts 328°
2026-05-06 12:02 19.07989 73.05068 2822 ft 150 kts 309°
2026-05-06 12:02 19.08481 73.04123 2711 ft 142 kts 295°
2026-05-06 12:03 19.08764 73.03128 2715 ft 141 kts 287°
2026-05-06 12:03 19.08926 73.02103 2559 ft 141 kts 280°
2026-05-06 12:03 19.08988 73.01076 2430 ft 140 kts 275°
2026-05-06 12:03 19.08979 73.00062 2287 ft 139 kts 272°
2026-05-06 12:04 19.08973 72.99050 2036 ft 136 kts 273°
2026-05-06 12:04 19.08978 72.98059 1811 ft 134 kts 274°
2026-05-06 12:04 19.08991 72.97074 1676 ft 134 kts 273°
2026-05-06 12:04 19.08993 72.96082 1523 ft 136 kts 272°
2026-05-06 12:05 19.08980 72.95087 1353 ft 136 kts 271°
2026-05-06 12:05 19.08962 72.94096 1242 ft 133 kts 275°
2026-05-06 12:05 19.08965 72.93121 1087 ft 133 kts 270°
2026-05-06 12:05 19.08930 72.92160 902 ft 132 kts 269°
2026-05-06 12:06 19.08936 72.91182 718 ft 134 kts 274°
2026-05-06 12:06 19.08939 72.90205 528 ft 131 kts 269°
2026-05-06 12:06 19.08905 72.89231 396 ft 133 kts 266°
2026-05-06 12:06 19.08886 72.88271 209 ft 133 kts 272°
2026-05-06 12:07 19.08876 72.87289 72 ft 132 kts 271°
2026-05-06 12:07 19.08872 72.86450 48 ft 91 kts 269°
2026-05-06 12:07 19.08860 72.85954 48 ft 51 kts 269°
2026-05-06 12:07 19.08876 72.85689 48 ft 28 kts 288°
2026-05-06 12:08 19.08921 72.85557 49 ft 12 kts 293°
2026-05-06 12:08 19.08958 72.85489 50 ft 9 kts 322°
2026-05-06 12:08 19.09012 72.85500 49 ft 7 kts 49°
2026-05-06 12:08 19.09026 72.85562 49 ft 10 kts 88°
2026-05-06 12:09 19.09028 72.85646 49 ft 13 kts 89°
2026-05-06 12:09 19.09029 72.85749 49 ft 15 kts 89°
2026-05-06 12:09 19.09031 72.85871 49 ft 18 kts 89°
2026-05-06 12:09 19.09033 72.86012 48 ft 21 kts 89°
2026-05-06 12:10 19.09035 72.86173 48 ft 23 kts 89°
2026-05-06 12:10 19.09037 72.86352 49 ft 26 kts 89°
2026-05-06 12:10 19.09041 72.86551 49 ft 28 kts 89°
2026-05-06 12:10 19.09043 72.86738 50 ft 13 kts 89°
2026-05-06 12:11 19.09061 72.86787 49 ft 8 kts 35°
2026-05-06 12:11 19.09113 72.86834 47 ft 10 kts 43°
2026-05-06 12:11 19.09133 72.86908 50 ft 11 kts 88°
2026-05-06 12:11 19.09134 72.86970 50 ft 8 kts 89°
2026-05-06 12:12 19.09135 72.87037 50 ft 6 kts 89°
2026-05-06 12:12 19.09160 72.87079 50 ft 8 kts 23°
2026-05-06 12:12 19.09215 72.87084 46 ft 7 kts 23°
2026-05-06 12:12 19.09234 72.87133 49 ft 7 kts 85°
2026-05-06 12:13 19.09252 72.87148 49 ft 4 kts 14°
2026-05-06 12:13 19.09290 72.87146 49 ft 6 kts 358°
2026-05-06 12:13 19.09322 72.87145 47 ft 3 kts 359°
2026-05-06 12:13 19.09327 72.87145 48 ft 0 kts 359°
2026-05-06 12:16 19.09313 72.87145 50 ft 0 kts 359°